Location: Bats
(43.6587°N, 0.4584°W)
Time: 06:24:47
(UTC+00:00)

YAOGAN 1 - Pass Details

Date: 12 January 2026
Orbit: 605 x 607 km, 97.8° (Epoch: 10 February)

Event Time Altitude Azimuth Distance (km) Brightness Sun altitude
Rises 17:24:39 0° 130° (SE) 2,855 5.7 -6.9°
Reaches altitude 10° 17:27:14 10° 114° (ESE) 1,956 4.7 -7.4°
Maximum altitude 17:30:23 21° 66° (ENE) 1,392 3.7 -7.9°
Drops below altitude 10° 17:33:33 10° 17° (NNE) 1,966 4.8 -8.4°
Sets 17:36:09 0° 2° (N) 2,875 5.7 -8.9°
